Flag for Lithuania Weather past 2 weeks in Vilnius, Lithuania

Now
36 °F

Clear.


Feels Like: 29 °F
Forecast: 30 / 55 °F
Wind: 8 mph from Northwest

Location: Vilnius Airport

Current Time: Apr 21, 2015 at 6:05:26 AM

Latest Report: Apr 21, 2015 at 5:20 AM


Visibility: 10 mi

Pressure: 29.95 "Hg

Humidity: 81%

Dew point: 30 °F

Location of VilniusLocation

Historic Weather in Vilnius — Graph

°F

Vilnius temperature yesterday

Maximum temperature yesterday: 46 °F (at 12:50 PM)
Minimum temperature yesterday: 39 °F (at 12:20 AM)
Average temperature yesterday: 41 °F

Past Weeks' High & Low Weather Summary

 TemperatureHumidityPressure
High66 °F (Apr 11, 3:50 PM)100% (Apr 6, 4:20 AM)30.30 "Hg (Apr 6, 4:20 AM)
Low27 °F (Apr 6, 4:50 AM)25% (Apr 14, 4:50 PM)29.36 "Hg (Apr 16, 4:50 AM)
Average43 °F70%29.94 "Hg
* Reported Apr 6 4:20 AM — Apr 21 4:50 AM, Vilnius, Weather by CustomWeather, © 2015

Note: Actual official high and low records may vary slightly from our data, if they occured in-between our weather recording intervals... More about our weather records

Advertising

Vilnius weather history for previous 24 hours

 ConditionsComfort  
Time TempWeatherWind HumidityBarometerVisibility
4:50 AM
Tue, Apr 21
36 °FClear.8 mph81%29.95 "Hg10 mi
4:20 AM36 °FClear.8 mph81%29.95 "Hg10 mi
3:50 AM37 °FClear.7 mph75%29.95 "Hg10 mi
3:20 AM39 °FClear.9 mph70%29.95 "Hg10 mi
2:50 AM39 °FClear.9 mph70%29.95 "Hg10 mi
2:20 AM39 °FClear.9 mph70%29.95 "Hg10 mi
1:50 AM39 °FClear.8 mph70%29.95 "Hg10 mi
1:20 AM41 °FClear.10 mph66%29.95 "Hg10 mi
12:50 AM41 °FClear.9 mph70%29.95 "Hg10 mi
12:20 AM41 °FPartly cloudy.7 mph70%29.95 "HgN/A
11:50 PM
Mon, Apr 20
41 °FPartly cloudy.7 mph66%29.95 "HgN/A
11:20 PM41 °FPartly cloudy.10 mph66%29.95 "HgN/A
10:50 PM41 °FPartly cloudy.9 mph66%29.95 "HgN/A
10:20 PM41 °FPartly cloudy.9 mph66%29.95 "HgN/A
9:50 PM41 °FPartly cloudy.10 mph66%29.95 "HgN/A
9:20 PM41 °FSprinkles. Broken clouds.13 mph66%29.92 "Hg5 mi
8:50 PM41 °FBroken clouds.14 mph66%29.92 "HgN/A
8:20 PM41 °FScattered showers. Broken clouds.6 mph76%29.92 "HgN/A
7:50 PM43 °FScattered showers. Broken clouds.12 mph66%29.92 "HgN/A
7:20 PM41 °FScattered showers. Broken clouds.14 mph70%29.89 "HgN/A
6:50 PM41 °FScattered showers. Broken clouds.13 mph76%29.89 "HgN/A
6:20 PM41 °FScattered showers. Broken clouds.15 mph76%29.89 "HgN/A
5:50 PM43 °FSprinkles. Broken clouds.12 mph76%29.89 "Hg4 mi
5:20 PM41 °FScattered showers. Broken clouds.12 mph81%29.89 "HgN/A
4:50 PM43 °FScattered showers. Broken clouds.14 mph71%29.86 "HgN/A
4:20 PM43 °FScattered showers. Broken clouds.12 mph76%29.86 "HgN/A
3:50 PM41 °FSprinkles. Cloudy.14 mph76%29.86 "Hg4 mi
3:20 PM45 °FScattered showers. Broken clouds.16 mph61%29.83 "HgN/A
2:50 PM45 °FBroken clouds.18 mph61%29.83 "HgN/A
2:20 PM43 °FScattered showers. Broken clouds.14 mph71%29.83 "HgN/A
1:57 PM41 °FSprinkles. Broken clouds.23 mph76%29.83 "Hg4 mi
1:20 PM46 °FScattered showers. Broken clouds.14 mph57%29.80 "HgN/A
12:50 PM46 °FScattered showers. Broken clouds.18 mph62%29.80 "HgN/A
12:20 PM43 °FRain showers. Mostly cloudy.21 mph66%29.77 "Hg2 mi
11:50 AM43 °FScattered showers. Broken clouds.20 mph71%29.77 "HgN/A
11:20 AM43 °FScattered showers. Broken clouds.18 mph71%29.74 "HgN/A
10:50 AM41 °FScattered showers. Broken clouds.18 mph76%29.74 "HgN/A
10:20 AM41 °FBroken clouds.20 mph76%29.71 "HgN/A
9:50 AM41 °FBroken clouds.20 mph76%29.71 "HgN/A
9:20 AM41 °FBroken clouds.20 mph76%29.68 "HgN/A
8:50 AM39 °FBroken clouds.20 mph81%29.68 "HgN/A
8:20 AM39 °FBroken clouds.20 mph81%29.65 "HgN/A
7:50 AM39 °FBroken clouds.20 mph81%29.65 "HgN/A
7:20 AM39 °FMostly cloudy.16 mph81%29.62 "HgN/A
6:50 AM39 °FOvercast.17 mph81%29.62 "HgN/A
6:20 AM39 °FOvercast.16 mph87%29.62 "HgN/A
Weather by CustomWeather, © 2015

See weather overviewHow to use our weather pages